Location: Innsbruck
(47.2657°N, 11.3914°E)
Time: 14:34:19
(UTC+02:00)

Nauka - Pass Details

Date: 23 September 2021
Orbit: 418 x 423 km, 51.6° (Epoch: 18 October)

Event Time Altitude Azimuth Distance (km) Brightness Sun altitude
Rises 20:02:47 0° 261° (W) 2,359 ? -9.7°
Reaches altitude 10° 20:04:55 10° 267° (W) 1,498 ? -10.1°
Maximum altitude 20:08:12 51° 344° (NNW) 536 ? -10.7°
Enters shadow 20:11:17 11° 61° (ENE) 1,420 ? -11.2°
